This is the latest recevied weather packets stored in our database for station/object AE6BH. If no packets are shown the sender has not sent any weather packets the latest 10 day(s).
| Time | Temp. | Humidity | Pressure | Rain* | Wind** | Luminosity | Snow |
|---|---|---|---|---|---|---|---|
| 1777474635 | 11.11° C | 92% | 1017.7 hPa | 0 mm | - | 97 W/m² | - |
| 1777474333 | 10.56° C | 93% | 1017.9 hPa | 0 mm | - | 57 W/m² | - |
| 1777474029 | 10.56° C | 93% | 1018 hPa | 0 mm | - | 43 W/m² | - |
| 1777473727 | 10° C | 93% | 1018.1 hPa | 0 mm | - | 39 W/m² | - |
| 1777473424 | 10° C | 93% | 1018.1 hPa | 0 mm | - | 38 W/m² | - |
| 1777473119 | 10° C | 93% | 1018.1 hPa | 0 mm | - | 35 W/m² | - |
| 1777472816 | 9.44° C | 93% | 1018.1 hPa | 0 mm | - | 33 W/m² | - |
| 1777472512 | 8.89° C | 93% | 1017.9 hPa | 0 mm | - | 32 W/m² | - |
| 1777472209 | 8.33° C | 93% | 1018.2 hPa | 0 mm | - | 31 W/m² | - |
| 1777471905 | 8.33° C | 93% | 1018.2 hPa | 0 mm | - | 30 W/m² | - |
| 1777471602 | 8.33° C | 93% | 1018.1 hPa | 0 mm | - | 28 W/m² | - |
| 1777471299 | 7.78° C | 92% | 1018.1 hPa | 0 mm | - | 26 W/m² | - |
| 1777470995 | 7.22° C | 92% | 1017.9 hPa | 0 mm | - | 25 W/m² | - |
| 1777470692 | 7.22° C | 92% | 1018.2 hPa | 0 mm | - | 22 W/m² | - |
| 1777470388 | 6.67° C | 92% | 1018.1 hPa | 0 mm | - | 21 W/m² | - |
| 1777470085 | 6.67° C | 92% | 1018 hPa | 0 mm | - | 19 W/m² | - |
| 1777469782 | 6.67° C | 92% | 1017.8 hPa | 0 mm | - | 15 W/m² | - |
| 1777469477 | 6.67° C | 92% | 1017.9 hPa | 0 mm | - | 14 W/m² | - |
| 1777469177 | 6.67° C | 92% | 1017.9 hPa | 0 mm | - | 12 W/m² | - |
| 1777468871 | 6.67° C | 92% | 1017.7 hPa | 0 mm | - | 9 W/m² | - |
| 1777468568 | 6.67° C | 92% | 1017.9 hPa | 0 mm | - | 6 W/m² | - |
| 1777468265 | 6.67° C | 92% | 1017.7 hPa | 0 mm | - | 3 W/m² | - |
| 1777467961 | 6.67° C | 91% | 1017.8 hPa | 0 mm | - | 2 W/m² | - |
| 1777467657 | 6.67° C | 91% | 1017.6 hPa | 0 mm | - | 0 W/m² | - |
| 1777467352 | 6.11° C | 90% | 1017.8 hPa | 0 mm | - | 0 W/m² | - |
* Rain latest hour (hover to see other rain measurements)
** Current wind speed in m/s (hover to see current wind gust speed)